N7LK Weather Reports


time (UTC)temp
F
wind
direction
speed
knots
gust
knots
rain 1hr
in
rain 24hr
in
rain mn
in
humidity
%
barometer
mb
20260506153340 72 32 0.9 4.3 0.00 0.00 0.00 32 1014.2
20260506152329 71 23 0.9 4.3 0.00 0.00 0.00 32 1014.2
20260506151336 71 345 0.0 4.3 0.00 0.00 0.00 34 1014.2
20260506150403 70 326 0.9 2.6 0.00 0.00 0.00 35 1014.3
20260506145333 69 337 0.9 1.7 0.00 0.00 0.00 35 1014.3
20260506144342 69 303 0.0 3.5 0.00 0.00 0.00 36 1014.2
20260506143328 68 355 0.0 0.0 0.00 0.00 0.00 37 1014.2
20260506142336 67 63 0.0 0.0 0.00 0.00 0.00 40 1014.0
20260506141328 66 67 0.0 0.0 0.00 0.00 0.00 42 1013.9
20260506140336 65 79 0.0 1.7 0.00 0.00 0.00 45 1013.8
20260506135343 63 102 0.0 0.0 0.00 0.00 0.00 48 1013.5
20260506134336 62 149 0.0 0.0 0.00 0.00 0.00 50 1013.4
20260506133403 60 148 0.0 0.0 0.00 0.00 0.00 53 1013.3
20260506132350 58 170 0.0 0.0 0.00 0.00 0.00 57 1013.3
20260506131337 57 170 0.0 0.0 0.00 0.00 0.00 56 1013.2
20260506130345 57 170 0.0 0.0 0.00 0.00 0.00 55 1013.0
20260506125337 57 246 0.0 0.0 0.00 0.00 0.00 55 1013.0
20260506124327 57 246 0.0 0.0 0.00 0.00 0.00 56 1012.9
20260506123336 57 246 0.0 0.9 0.00 0.00 0.00 57 1012.8
20260506122328 57 246 0.0 0.0 0.00 0.00 0.00 55 1012.6
20260506121335 57 246 0.0 0.0 0.00 0.00 0.00 55 1012.5
20260506120345 58 246 0.0 0.0 0.00 0.00 0.00 54 1012.5
20260506115332 58 246 0.0 0.0 0.00 0.00 0.00 53 1012.5
20260506114343 58 246 0.0 0.0 0.00 0.00 0.00 53 1012.5
20260506113330 58 246 0.0 0.0 0.00 0.00 0.00 52 1012.5
20260506112339 58 246 0.0 0.0 0.00 0.00 0.00 52 1012.4
20260506111345 59 246 0.0 0.0 0.00 0.00 0.00 52 1012.4
20260506110338 59 246 0.0 0.0 0.00 0.00 0.00 52 1012.3
20260506105326 59 246 0.0 0.0 0.00 0.00 0.00 51 1012.3
20260506104334 59 246 0.0 0.0 0.00 0.00 0.00 50 1012.2
20260506103342 60 246 0.0 0.0 0.00 0.00 0.00 49 1012.2
20260506102334 60 246 0.0 0.0 0.00 0.00 0.00 49 1012.1
20260506101341 61 246 0.0 0.0 0.00 0.00 0.00 47 1011.9
20260506100330 61 246 0.0 0.0 0.00 0.00 0.00 46 1011.9
20260506095339 61 246 0.0 0.0 0.00 0.00 0.00 46 1011.9
20260506094330 62 246 0.0 0.0 0.00 0.00 0.00 45 1011.8
20260506093338 62 230 0.0 0.0 0.00 0.00 0.00 43 1011.7
20260506092345 63 230 0.0 0.0 0.00 0.00 0.00 42 1011.7
20260506091352 63 230 0.0 0.0 0.00 0.00 0.00 42 1011.7
20260506090342 64 230 0.0 0.0 0.00 0.00 0.00 41 1011.6
20260506085330 64 230 0.0 0.0 0.00 0.00 0.00 40 1011.5
20260506084336 65 242 0.0 0.0 0.00 0.00 0.00 39 1011.4
20260506083404 65 338 0.0 0.9 0.00 0.00 0.00 39 1011.6
20260506082332 66 256 0.0 0.0 0.00 0.00 0.00 37 1011.4
20260506081343 66 256 0.0 3.5 0.00 0.00 0.00 37 1011.4
20260506080331 67 229 0.0 5.2 0.00 0.00 0.00 36 1011.4
20260506073338 67 254 0.9 2.6 0.00 0.00 0.00 35 1011.4
20260506072325 67 273 1.7 6.1 0.00 0.00 0.00 35 1011.4
20260506071334 68 270 1.7 5.2 0.00 0.00 0.00 34 1011.3
20260506070340 68 266 3.5 8.7 0.00 0.00 0.00 34 1011.2
20260506062334 69 283 1.7 6.1 0.00 0.00 0.00 33 1011.0
20260506061325 69 263 3.5 6.1 0.00 0.00 0.00 32 1011.0
20260506060333 69 273 0.9 3.5 0.00 0.00 0.00 32 1010.9
20260506051336 70 283 0.9 8.7 0.00 0.00 0.00 31 1010.7
20260506050327 70 279 1.7 7.8 0.00 0.00 0.00 31 1010.5
20260506044403 70 317 1.7 6.1 0.00 0.00 0.00 30 1010.4
20260506043330 70 265 3.5 7.0 0.00 0.00 0.00 30 1010.3
20260506042338 71 196 2.6 7.0 0.00 0.00 0.00 30 1010.3
20260506041330 71 270 0.9 7.8 0.00 0.00 0.00 29 1010.1
20260506040338 71 233 4.3 8.7 0.00 0.00 0.00 29 1010.0
20260506035327 71 226 0.0 3.5 0.00 0.00 0.00 28 1009.9
20260506034340 72 228 0.9 5.2 0.00 0.00 0.00 28 1009.8
20260506033329 72 269 0.9 9.6 0.00 0.00 0.00 27 1009.6
20260506032355 72 256 6.1 11.3 0.00 0.00 0.00 27 1009.5
20260506031343 72 257 3.5 8.7 0.00 0.00 0.00 27 1009.3
20260506030335 72 270 3.5 7.8 0.00 0.00 0.00 27 1009.2
20260506025344 73 280 2.6 10.4 0.00 0.00 0.00 26 1009.0
20260506024331 73 285 0.9 8.7 0.00 0.00 0.00 27 1009.0
20260506023338 73 268 1.7 9.6 0.00 0.00 0.00 26 1008.7
20260506022330 73 234 3.5 10.4 0.00 0.00 0.00 26 1008.7
20260506021337 74 232 3.5 11.3 0.00 0.00 0.00 25 1008.5
20260506020345 74 240 3.5 8.7 0.00 0.00 0.00 24 1008.4
20260506015333 75 295 1.7 8.7 0.00 0.00 0.00 24 1008.3
20260506014344 75 252 6.1 10.4 0.00 0.00 0.00 24 1008.1
20260506013331 76 248 0.0 7.8 0.00 0.00 0.00 25 1008.1
20260506012339 76 258 0.0 9.6 0.00 0.00 0.00 25 1008.0
20260506011347 76 182 2.6 9.6 0.00 0.00 0.00 25 1007.9
20260506010358 76 223 1.7 9.6 0.00 0.00 0.00 25 1007.9
20260506005405 76 300 2.6 13.0 0.00 0.00 0.00 25 1007.9
20260506004353 76 274 4.3 13.0 0.00 0.00 0.00 25 1007.8
20260506003340 76 263 6.1 12.2 0.00 0.00 0.00 25 1007.7
20260506002331 77 168 5.2 13.0 0.00 0.00 0.00 24 1007.6
20260506001338 77 181 3.5 10.4 0.00 0.00 0.00 24 1007.5
20260506000346 77 263 6.1 13.9 0.00 0.00 0.00 24 1007.5
20260505235333 77 240 1.7 12.2 0.00 0.00 0.00 25 1007.5
20260505234341 77 333 1.7 9.6 0.00 0.00 0.00 25 1007.4
20260505233332 77 302 2.6 13.9 0.00 0.00 0.00 26 1007.4
20260505232340 78 298 4.3 9.6 0.00 0.00 0.00 25 1007.5
20260505231328 76 222 3.5 8.7 0.00 0.00 0.00 27 1007.5
20260505230335 76 263 7.0 13.9 0.00 0.00 0.00 25 1007.6
20260505225407 76 257 1.7 11.3 0.00 0.00 0.00 27 1007.6
20260505224334 76 321 3.5 10.4 0.00 0.00 0.00 27 1007.8
20260505223403 78 315 3.5 13.9 0.00 0.00 0.00 26 1007.9
20260505222329 77 262 5.2 11.3 0.00 0.00 0.00 26 1008.0
20260505221401 78 270 5.2 13.0 0.00 0.00 0.00 26 1008.1
20260505220407 77 207 3.5 14.8 0.00 0.00 0.00 26 1008.3
20260505215334 79 256 2.6 13.9 0.00 0.00 0.00 25 1008.2
20260505214342 78 234 5.2 10.4 0.00 0.00 0.00 26 1008.2
20260505213332 78 259 5.2 11.3 0.00 0.00 0.00 26 1008.3
20260505212340 78 280 3.5 7.0 0.00 0.00 0.00 25 1008.4
20260505211329 77 279 7.0 13.0 0.00 0.00 0.00 26 1008.5
20260505210336 78 260 4.3 13.9 0.00 0.00 0.00 27 1008.7
20260505205328 77 221 3.5 11.3 0.00 0.00 0.00 26 1008.7
20260505204334 78 248 5.2 14.8 0.00 0.00 0.00 27 1008.8
20260505203342 77 203 3.5 10.4 0.00 0.00 0.00 28 1008.8
20260505202329 76 215 8.7 16.5 0.00 0.00 0.00 29 1008.9
20260505201336 77 155 4.3 10.4 0.00 0.00 0.00 29 1008.9
20260505200346 77 221 4.3 12.2 0.00 0.00 0.00 31 1009.0
20260505195334 76 246 3.5 10.4 0.00 0.00 0.00 31 1009.0
20260505194342 76 231 3.5 12.2 0.00 0.00 0.00 31 1009.2
20260505193333 76 239 2.6 10.4 0.00 0.00 0.00 32 1009.2
20260505192340 76 242 2.6 11.3 0.00 0.00 0.00 32 1009.2
20260505191346 75 219 1.7 7.8 0.00 0.00 0.00 34 1009.4
20260505190334 75 234 3.5 8.7 0.00 0.00 0.00 34 1009.5
20260505185342 75 275 2.6 7.0 0.00 0.00 0.00 37 1009.5
20260505184333 75 246 4.3 9.6 0.00 0.00 0.00 38 1009.8
20260505183401 75 235 3.5 7.0 0.00 0.00 0.00 37 1009.6
20260505182327 74 240 2.6 10.4 0.00 0.00 0.00 40 1009.8
20260505181335 74 304 3.5 8.7 0.00 0.00 0.00 38 1009.9
20260505180406 73 257 4.3 8.7 0.00 0.00 0.00 40 1009.8
20260505175333 73 280 5.2 8.7 0.00 0.00 0.00 41 1009.9
20260505174341 72 273 2.6 9.6 0.00 0.00 0.00 42 1009.9
20260505173329 72 34 0.0 8.7 0.00 0.00 0.00 42 1009.9
20260505172340 72 238 4.3 8.7 0.00 0.00 0.00 44 1009.9
20260505171330 72 265 3.5 7.8 0.00 0.00 0.00 43 1009.9
20260505170356 71 228 0.9 7.8 0.00 0.00 0.00 43 1010.0
20260505165344 71 269 1.7 5.2 0.00 0.00 0.00 45 1009.9
20260505164336 70 238 2.6 7.8 0.00 0.00 0.00 46 1010.0
20260505163344 68 287 0.9 6.1 0.00 0.00 0.00 47 1010.0
20260505162331 68 279 2.6 6.1 0.00 0.00 0.00 51 1010.0
20260505161359 68 150 2.6 5.2 0.00 0.00 0.00 53 1010.1
20260505160331 68 223 2.6 8.7 0.00 0.00 0.00 55 1010.2